Theta_e
335 342 348 346 347 348 348 347 349 350 348 345 343 343 343 343 343 343 344 345 345 346 346 345 344 342 341 342 342 342 341 341 343 344 344 345 344 344 343 342 341 335 340
338 343 346 347 346 346 347 347 349 349 348 345 342 342 342 341 342 340 341 343 342 343 342 340 340 340 342 341 341 342 343 342 343 342 341 342 343 343 342 341 340 335 338
338 343 344 346 347 346 347 348 348 349 347 344 341 341 341 341 340 342 341 342 340 339 338 338 338 339 340 342 342 341 340 341 341 340 339 333 335 340 340 338 338 337 338
338 339 341 344 346 346 348 348 347 349 347 343 340 340 341 340 342 344 341 342 338 337 337 336 338 338 340 341 340 339 338 339 339 337 332 332 332 336 337 336 336 335 335
334 338 341 343 345 345 347 347 346 348 346 342 340 340 340 338 339 343 341 339 338 337 338 337 336 339 339 338 337 337 338 339 337 332 330 328 328 333 334 333 332 333 331
334 339 343 345 346 345 347 348 346 347 345 342 340 339 340 339 337 339 341 340 337 337 337 336 337 339 338 337 335 335 337 336 332 327 328 330 329 332 331 329 328 329 329
333 340 342 344 344 345 346 348 346 347 343 340 339 338 339 338 336 336 339 338 336 337 337 339 338 337 336 335 333 333 333 332 326 324 326 327 326 332 332 329 326 326 327
335 339 341 337 340 342 344 345 345 345 343 341 339 337 338 338 336 336 336 339 337 337 337 338 337 336 335 333 332 331 330 329 325 324 323 325 331 330 327 326 324 325 324
338 336 336 336 336 336 338 340 343 343 342 341 340 339 338 338 338 336 338 339 338 338 338 337 336 336 334 332 330 329 327 327 320 324 326 324 331 328 325 324 323 324 323
337 335 332 332 334 334 335 333 335 338 338 338 335 333 331 332 332 332 331 337 338 337 336 336 336 335 333 330 328 326 325 326 319 322 322 324 329 326 324 323 322 322 322
336 337 334 330 331 333 335 330 331 332 332 331 330 328 326 327 327 328 328 331 335 335 334 333 333 332 330 328 327 325 324 321 319 320 320 327 327 325 323 321 320 320 319
333 334 337 336 331 331 334 333 333 333 331 331 329 326 328 325 325 327 323 326 327 330 332 330 327 328 326 323 320 322 319 321 320 319 320 327 326 325 322 321 321 319 319
331 335 336 336 334 332 331 331 331 331 331 331 329 327 326 325 323 325 323 322 321 321 323 325 321 321 322 321 321 320 320 320 319 319 321 327 327 326 324 323 322 321 320
330 331 334 336 335 334 332 330 331 330 331 330 330 327 324 323 322 323 324 323 322 322 322 322 320 320 320 320 320 320 320 319 319 319 318 322 328 325 326 325 324 323 321
328 330 331 334 335 334 334 332 331 330 330 330 329 328 326 323 323 323 323 323 322 322 321 319 319 319 319 319 319 320 320 320 320 319 318 317 323 326 326 328 327 326 325
328 329 332 333 334 335 333 332 331 332 331 329 328 328 327 324 323 323 322 322 321 320 319 319 318 317 317 318 319 319 320 320 320 320 320 317 321 325 326 327 329 328 328
326 329 331 332 334 334 332 333 333 331 333 331 329 329 327 326 323 321 322 321 321 321 319 317 317 317 316 317 317 318 318 319 319 320 320 320 319 320 324 327 327 329 330
325 327 331 332 331 333 332 332 333 333 331 332 331 331 328 327 325 322 320 321 321 320 319 317 316 314 314 313 313 314 314 315 316 317 318 318 318 319 320 325 327 327 328
325 327 329 330 330 332 332 332 332 332 332 332 332 331 331 328 327 323 321 319 319 319 317 317 316 314 312 312 315 313 313 313 314 316 315 316 317 319 318 320 321 322 326
325 327 329 332 331 332 332 331 331 331 331 332 332 331 331 330 329 325 323 321 320 317 316 315 316 315 314 313 313 312 310 312 311 313 313 315 315 316 317 318 317 316 319
323 325 327 329 332 331 330 329 328 328 329 329 330 331 330 330 329 328 326 324 323 318 318 317 316 313 312 313 311 307 310 311 312 312 313 314 314 314 314 315 316 317 318
316 322 324 327 329 331 329 329 329 328 329 330 330 330 330 329 329 327 327 326 322 319 318 317 315 313 313 313 310 305 304 306 312 314 313 312 312 311 313 313 314 316 314
301 306 321 324 326 330 331 328 327 327 326 326 326 327 328 330 329 327 326 326 323 320 319 319 316 315 314 313 312 309 303 301 306 313 311 311 312 311 312 312 312 313 314
303 302 304 318 323 326 329 327 326 324 323 325 326 327 327 328 328 327 326 326 324 322 320 320 319 318 316 313 310 309 311 309 305 306 312 312 309 308 307 307 308 309 308
306 301 301 308 317 323 325 327 325 323 323 323 324 325 325 326 326 327 326 326 325 324 322 321 318 317 317 315 313 308 306 306 306 303 304 308 308 306 305 305 306 308 308
305 302 304 309 313 319 321 323 324 323 322 321 321 321 321 322 323 324 323 323 322 322 321 320 319 318 317 315 315 314 308 307 305 302 303 306 306 309 309 310 308 306 306
Wind_Speed
10 8 11 10 9 11 11 9 12 14 15 16 17 15 15 16 16 17 16 17 18 20 20 20 20 19 19 19 20 19 18 17 18 21 21 20 21 21 21 20 18 16 19
15 11 11 10 10 10 10 9 10 14 14 16 16 14 15 15 15 18 17 17 19 19 19 18 18 18 20 19 19 19 19 16 14 15 18 18 20 21 21 19 18 15 18
15 11 10 11 12 10 8 8 11 14 15 16 15 14 14 14 14 16 19 17 17 19 17 18 18 17 16 16 18 20 19 15 16 15 13 8 11 18 19 18 18 18 18
14 11 10 11 11 10 9 9 14 14 15 15 15 13 14 13 13 16 19 17 16 17 16 17 17 16 15 17 17 17 15 13 13 13 8 9 10 15 16 17 17 17 16
13 13 10 11 10 10 9 9 14 15 14 15 14 13 13 13 14 16 17 17 15 15 16 16 14 14 15 15 14 12 10 9 9 12 9 6 6 12 15 16 14 14 14
15 12 10 10 9 11 9 11 15 14 14 14 14 12 13 13 12 15 15 16 13 15 15 15 14 14 14 15 14 13 11 13 12 10 8 10 7 12 11 12 12 12 11
14 11 9 10 10 10 9 12 13 14 14 13 13 12 13 13 13 13 12 14 14 13 12 13 13 13 13 14 13 12 12 13 7 8 7 7 6 12 12 11 10 10 11
13 11 9 9 9 10 10 10 13 14 13 12 12 12 12 12 12 11 10 12 13 11 8 12 13 12 12 12 10 9 9 9 6 7 7 6 10 11 9 8 7 8 8
12 10 8 8 8 9 9 10 9 13 13 11 11 11 11 12 10 10 10 9 12 10 11 11 12 11 11 10 8 8 10 11 6 6 7 4 8 8 6 7 7 7 7
11 9 8 7 7 7 6 9 9 10 13 11 11 10 9 9 9 8 8 11 12 12 13 12 11 10 9 8 6 6 8 9 3 6 4 3 6 6 5 5 5 5 5
9 6 8 8 7 8 8 6 8 10 10 10 7 8 7 5 5 7 8 10 10 11 11 10 8 7 8 6 3 5 8 3 4 4 4 5 4 4 4 3 2 3 3
12 8 5 5 7 8 8 6 6 6 5 5 5 6 4 6 4 7 6 8 8 9 8 6 3 2 5 3 3 5 2 3 3 3 3 7 5 4 4 4 4 3 3
12 8 8 5 5 7 8 5 4 3 4 4 7 4 3 4 3 4 3 2 3 1 2 2 1 3 2 3 1 2 1 2 2 1 5 9 8 7 6 6 6 6 6
12 12 10 8 6 5 4 4 5 4 3 3 4 4 3 3 3 3 3 4 4 2 3 3 2 1 2 3 4 4 3 3 2 1 4 9 9 9 9 9 9 8 8
8 9 9 9 7 7 5 3 4 4 4 4 5 4 3 3 3 2 2 3 3 3 2 2 2 1 3 4 3 3 5 4 5 2 2 9 10 12 12 12 12 11 11
9 9 11 9 8 5 7 2 1 3 5 3 4 5 4 3 4 3 3 2 2 2 2 3 3 3 3 3 4 4 5 5 5 5 3 4 11 13 15 16 16 14 14
7 8 11 11 10 9 6 5 3 2 1 4 4 5 6 3 4 3 3 3 3 3 2 1 2 2 3 3 4 4 4 5 5 6 5 4 5 14 15 19 19 19 19
8 9 9 9 9 7 7 5 4 4 2 2 1 4 6 5 4 3 2 3 3 3 2 2 3 3 4 3 3 3 4 5 6 7 5 5 4 4 11 19 20 22 22
9 9 8 11 10 9 7 5 5 5 4 3 3 2 2 5 5 3 3 1 2 1 2 3 4 3 2 4 4 4 5 5 6 6 7 9 8 8 6 7 18 21 23
9 9 9 11 12 12 4 5 4 4 4 4 3 3 4 3 5 4 3 4 5 4 4 3 3 2 3 3 4 6 5 5 5 6 7 7 8 9 9 9 7 6 18
6 8 9 11 12 10 6 5 4 5 4 3 4 5 5 4 4 3 3 4 2 4 2 4 3 4 3 3 3 4 6 8 10 9 8 8 8 8 7 7 6 7 8
5 6 7 8 9 11 8 7 3 4 2 3 4 4 5 6 6 5 5 4 4 3 3 4 4 2 3 3 3 1 4 4 5 8 8 7 9 5 6 6 8 10 8
4 5 7 7 8 9 12 6 4 3 2 2 2 3 5 6 6 7 6 5 4 4 5 6 5 6 6 3 6 3 2 4 3 5 4 5 6 5 7 7 9 10 10
3 5 4 4 5 6 9 9 9 5 3 3 4 3 4 5 5 5 5 5 5 4 5 5 4 6 4 6 1 5 7 3 4 8 2 3 4 7 6 5 6 7 7
1 2 3 2 2 5 5 10 6 4 2 1 1 4 3 3 5 4 4 4 5 4 5 6 5 5 5 5 4 3 4 4 5 6 12 9 5 4 5 6 8 9 11
4 3 3 4 4 6 6 4 7 7 5 3 1 2 2 2 1 2 3 3 3 3 3 3 4 5 5 5 5 5 4 4 4 4 8 14 17 11 6 7 7 8 8
Wind_Direction
125 127 120 116 112 109 101 108 102 103 98 92 82 80 78 73 86 71 74 73 71 68 69 71 70 71 71 73 71 67 68 71 70 69 65 68 69 69 69 67 63 62 60
121 126 122 116 112 107 107 103 106 106 96 92 86 84 80 78 75 86 78 70 73 71 72 74 74 77 73 76 74 73 68 77 78 74 67 58 62 68 67 63 65 70 68
115 124 125 116 111 102 102 98 118 111 102 95 90 89 88 86 85 91 89 83 80 82 84 80 78 82 74 88 82 79 67 61 61 54 68 69 62 65 69 68 69 69 68
122 123 115 106 111 106 99 81 120 111 104 97 95 97 92 84 80 95 90 88 85 87 88 85 85 80 74 82 86 83 80 72 63 65 54 58 63 63 64 67 65 67 69
114 102 113 110 111 104 95 92 119 109 103 99 100 103 99 91 77 82 91 88 88 90 89 91 85 80 85 77 72 62 50 36 86 77 68 60 61 66 66 68 64 68 65
103 106 113 112 108 99 97 100 117 108 105 102 103 107 101 92 84 75 89 87 85 92 92 92 85 75 83 78 64 47 33 9 79 66 68 58 60 64 64 64 71 64 66
104 113 119 112 107 100 98 108 114 104 101 100 103 108 103 96 88 76 71 93 96 97 94 93 95 88 78 72 62 40 19 8 92 87 75 70 74 75 74 74 75 70 66
114 112 117 107 102 98 91 87 110 106 102 106 107 107 104 98 92 89 72 92 101 103 86 103 100 93 86 77 63 36 17 2 75 97 91 76 78 78 79 84 77 77 77
117 120 124 121 110 102 101 91 102 112 105 106 100 91 83 76 87 75 53 93 98 84 74 84 95 94 87 76 59 32 2 4 43 91 84 77 87 84 80 73 68 70 70
124 133 137 132 148 132 114 96 86 102 98 99 98 100 98 100 102 100 82 75 81 78 71 66 79 89 82 68 52 7 353 339 47 87 82 87 92 91 86 78 70 84 85
131 131 141 154 150 135 123 109 96 98 110 112 117 143 151 139 128 86 73 81 82 92 83 73 73 91 105 104 81 313 320 297 51 118 114 125 124 127 127 133 136 130 127
141 151 155 169 153 148 132 156 139 139 155 161 145 189 216 98 89 104 89 84 77 96 88 75 66 168 202 189 186 252 300 4 343 94 125 156 169 181 185 184 189 197 187
152 154 160 173 162 150 133 175 150 162 173 156 155 191 113 106 133 123 125 123 118 218 133 145 190 255 294 7 187 266 18 323 291 211 159 173 199 212 219 217 219 222 226
160 163 159 170 164 153 137 165 157 154 144 139 145 145 131 137 183 146 164 178 167 178 189 173 221 324 346 308 318 321 311 296 294 273 180 186 207 234 243 240 242 243 239
167 155 154 160 174 178 172 192 152 154 143 165 146 158 160 160 166 168 165 137 168 179 150 200 262 197 271 289 292 287 299 287 300 307 191 205 213 228 247 254 254 255 253
169 160 158 151 174 208 187 209 292 148 158 158 154 167 194 170 169 177 156 182 175 163 215 193 215 222 243 242 256 261 269 287 282 282 278 212 219 225 235 249 254 254 251
167 166 158 161 180 178 175 176 219 273 355 168 162 167 172 217 184 173 176 192 202 193 219 218 301 310 303 296 261 273 288 273 283 282 273 258 221 233 232 241 249 255 255
164 170 150 145 162 205 168 168 168 169 226 215 220 178 170 184 233 189 204 201 213 167 183 215 225 250 247 257 273 270 273 255 252 255 267 270 268 246 236 239 244 247 252
171 166 157 149 165 196 173 161 165 170 182 183 184 234 219 183 200 220 190 213 289 170 209 236 246 201 246 265 269 269 251 252 248 244 236 245 239 240 248 242 237 242 245
175 170 169 161 173 191 173 154 158 168 174 170 173 193 214 256 215 201 203 203 204 184 228 241 236 263 248 260 276 269 262 257 250 250 240 241 240 235 235 237 246 244 244
179 173 173 170 169 165 166 170 169 186 177 173 177 188 181 198 233 282 265 229 219 210 192 216 226 241 275 217 268 289 259 251 249 245 246 245 245 238 237 232 236 243 250
194 200 188 177 171 166 169 180 159 148 179 176 185 187 186 190 200 209 230 241 203 212 227 234 205 238 243 193 214 304 306 310 259 246 244 239 240 231 245 240 237 240 238
242 229 205 200 179 171 165 153 128 121 81 136 177 188 202 200 198 201 214 222 215 200 224 225 207 210 254 246 207 203 307 256 315 260 266 248 239 230 239 237 239 242 242
331 341 318 219 194 172 153 158 160 166 164 170 182 180 196 204 211 205 216 219 213 212 223 229 222 226 229 250 217 228 249 276 305 300 271 292 277 255 248 246 247 247 238
37 273 278 284 175 152 148 144 152 112 89 64 106 188 188 202 215 219 228 241 234 220 228 227 225 230 227 243 219 200 229 246 251 261 294 294 300 279 262 242 239 243 240
98 99 99 97 64 81 80 116 137 137 149 147 160 95 50 47 64 253 269 273 273 291 284 267 255 252 245 245 254 248 213 251 260 237 279 293 293 287 256 255 251 253 253